| time (UTC) | temp C | wind direction | speed KPH | gust KPH | rain 1hr cm | rain 24hr cm | rain mn cm | humidity % | barometer mb |
| 20260509071540 | 13 | 295 | 4.8 | 12.9 | 0.00 | 0.00 | 0.00 | 84 | 1012.5 |
| 20260509070049 | 13 | 0 | 3.2 | 8.0 | 0.00 | 0.00 | 0.00 | 85 | 1012.5 |
| 20260509064555 | 12 | 0 | 0.0 | 4.8 | 0.00 | 0.00 | 0.00 | 87 | 1012.7 |
| 20260509063046 | 12 | 0 | 0.0 | 4.8 | 0.00 | 0.00 | 0.00 | 89 | 1012.7 |
| 20260509061544 | 11 | 0 | 0.0 | 4.8 | 0.00 | 0.00 | 0.00 | 89 | 1013.0 |
| 20260509060044 | 11 | 0 | 0.0 | 0.0 | 0.00 | 0.00 | 0.00 | 89 | 1012.8 |
| 20260509054542 | 11 | 0 | 0.0 | 0.0 | 0.00 | 0.00 | 0.00 | 90 | 1012.9 |
| 20260509053055 | 10 | 0 | 0.0 | 0.0 | 0.00 | 0.00 | 0.00 | 90 | 1013.0 |
| 20260509051547 | 10 | 0 | 0.0 | 1.6 | 0.00 | 0.00 | 0.00 | 90 | 1013.0 |
| 20260509050046 | 10 | 0 | 0.0 | 3.2 | 0.00 | 0.00 | 0.00 | 90 | 1012.9 |
| 20260509044550 | 10 | 0 | 0.0 | 3.2 | 0.00 | 0.00 | 0.00 | 90 | 1012.8 |
| 20260509043055 | 10 | 0 | 0.0 | 0.0 | 0.00 | 0.00 | 0.00 | 90 | 1013.0 |
| 20260509041540 | 10 | 0 | 0.0 | 0.0 | 0.00 | 0.00 | 0.00 | 91 | 1012.9 |
| 20260509040043 | 10 | 0 | 0.0 | 0.0 | 0.00 | 0.00 | 0.00 | 91 | 1013.0 |
| 20260509034551 | 10 | 0 | 0.0 | 0.0 | 0.00 | 0.00 | 0.00 | 91 | 1013.0 |
| 20260509033049 | 10 | 0 | 0.0 | 0.0 | 0.00 | 0.00 | 0.00 | 91 | 1013.1 |
| 20260509031545 | 10 | 0 | 0.0 | 0.0 | 0.00 | 0.00 | 0.00 | 91 | 1013.1 |
| 20260509030040 | 10 | 0 | 0.0 | 0.0 | 0.00 | 0.00 | 0.00 | 91 | 1013.1 |
| 20260509024540 | 10 | 0 | 0.0 | 0.0 | 0.00 | 0.00 | 0.00 | 90 | 1013.2 |
| 20260509023044 | 10 | 0 | 0.0 | 0.0 | 0.00 | 0.00 | 0.00 | 90 | 1012.9 |
| 20260509021549 | 10 | 0 | 0.0 | 4.8 | 0.00 | 0.00 | 0.00 | 90 | 1013.3 |
| 20260509020043 | 10 | 0 | 0.0 | 3.2 | 0.00 | 0.00 | 0.00 | 90 | 1013.5 |
| 20260509014543 | 10 | 0 | 0.0 | 0.0 | 0.00 | 0.00 | 0.00 | 90 | 1013.7 |
| 20260509013053 | 10 | 0 | 0.0 | 0.0 | 0.00 | 0.00 | 0.00 | 91 | 1013.7 |
| 20260509011546 | 10 | 0 | 0.0 | 0.0 | 0.00 | 0.00 | 0.00 | 91 | 1013.8 |
| 20260509010039 | 10 | 0 | 0.0 | 1.6 | 0.00 | 0.00 | 0.00 | 91 | 1013.9 |
| 20260509004554 | 10 | 0 | 0.0 | 0.0 | 0.00 | 0.00 | 0.00 | 91 | 1014.1 |
| 20260509003045 | 10 | 0 | 0.0 | 0.0 | 0.00 | 0.00 | 0.00 | 92 | 1014.1 |
| 20260509001550 | 9 | 0 | 0.0 | 0.0 | 0.00 | 0.00 | 0.00 | 92 | 1014.3 |
| 20260509000041 | 9 | 0 | 0.0 | 0.0 | 0.00 | 0.00 | 0.00 | 93 | 1014.3 |
| 20260508234541 | 8 | 0 | 0.0 | 0.0 | 0.00 | 0.00 | 0.00 | 92 | 1014.3 |
| 20260508233038 | 8 | 0 | 0.0 | 0.0 | 0.00 | 0.00 | 0.00 | 93 | 1014.4 |
| 20260508231625 | 9 | 0 | 0.0 | 0.0 | 0.00 | 0.00 | 0.00 | 92 | 1014.4 |
| 20260508230043 | 9 | 0 | 0.0 | 0.0 | 0.00 | 0.00 | 0.00 | 92 | 1014.3 |
| 20260508224549 | 9 | 0 | 0.0 | 0.0 | 0.00 | 0.00 | 0.00 | 91 | 1014.3 |
| 20260508223047 | 10 | 0 | 0.0 | 0.0 | 0.00 | 0.00 | 0.00 | 91 | 1014.5 |
| 20260508221539 | 10 | 0 | 0.0 | 0.0 | 0.00 | 0.00 | 0.00 | 91 | 1014.5 |
| 20260508220041 | 10 | 0 | 0.0 | 0.0 | 0.00 | 0.00 | 0.00 | 91 | 1014.5 |
| 20260508214553 | 10 | 0 | 0.0 | 0.0 | 0.00 | 0.00 | 0.00 | 90 | 1014.5 |
| 20260508213041 | 11 | 0 | 0.0 | 0.0 | 0.00 | 0.00 | 0.00 | 90 | 1014.4 |
| 20260508211549 | 11 | 0 | 0.0 | 0.0 | 0.00 | 0.00 | 0.00 | 89 | 1014.4 |
| 20260508210053 | 11 | 0 | 0.0 | 0.0 | 0.00 | 0.00 | 0.00 | 89 | 1014.3 |
| 20260508204541 | 11 | 0 | 0.0 | 0.0 | 0.00 | 0.00 | 0.00 | 88 | 1014.3 |
| 20260508203047 | 12 | 0 | 0.0 | 0.0 | 0.00 | 0.00 | 0.00 | 88 | 1013.9 |
| 20260508201544 | 12 | 0 | 0.0 | 1.6 | 0.00 | 0.00 | 0.00 | 87 | 1013.8 |
| 20260508200044 | 12 | 0 | 0.0 | 0.0 | 0.00 | 0.00 | 0.00 | 85 | 1013.6 |
| 20260508194541 | 13 | 0 | 0.0 | 1.6 | 0.00 | 0.00 | 0.00 | 84 | 1013.6 |
| 20260508193100 | 13 | 136 | 0.0 | 6.4 | 0.00 | 0.00 | 0.00 | 84 | 1013.4 |
| 20260508191551 | 14 | 151 | 1.6 | 4.8 | 0.00 | 0.00 | 0.00 | 83 | 1013.2 |
| 20260508190058 | 14 | 136 | 1.6 | 6.4 | 0.00 | 0.00 | 0.00 | 82 | 1013.0 |
| 20260508184549 | 15 | 141 | 4.8 | 11.3 | 0.00 | 0.00 | 0.00 | 81 | 1012.9 |
| 20260508183109 | 15 | 201 | 3.2 | 11.3 | 0.00 | 0.00 | 0.00 | 80 | 1012.9 |
| 20260508181552 | 15 | 153 | 4.8 | 16.1 | 0.00 | 0.00 | 0.00 | 79 | 1012.8 |
| 20260508180100 | 15 | 141 | 4.8 | 11.3 | 0.00 | 0.00 | 0.00 | 77 | 1012.6 |
| 20260508174601 | 16 | 168 | 3.2 | 11.3 | 0.00 | 0.00 | 0.00 | 74 | 1012.5 |
| 20260508173047 | 16 | 152 | 4.8 | 12.9 | 0.00 | 0.00 | 0.00 | 73 | 1012.3 |
| 20260508171543 | 16 | 214 | 4.8 | 14.5 | 0.00 | 0.00 | 0.00 | 71 | 1012.1 |
| 20260508170054 | 16 | 151 | 4.8 | 12.9 | 0.00 | 0.00 | 0.00 | 72 | 1012.0 |
| 20260508164553 | 17 | 188 | 3.2 | 19.3 | 0.00 | 0.00 | 0.00 | 71 | 1012.1 |
| 20260508163053 | 17 | 189 | 6.4 | 12.9 | 0.00 | 0.00 | 0.00 | 70 | 1011.9 |
| 20260508161549 | 17 | 139 | 6.4 | 12.9 | 0.00 | 0.00 | 0.00 | 68 | 1012.1 |
| 20260508160052 | 17 | 190 | 3.2 | 16.1 | 0.00 | 0.00 | 0.00 | 69 | 1012.1 |
| 20260508154548 | 18 | 164 | 4.8 | 17.7 | 0.00 | 0.00 | 0.00 | 66 | 1012.2 |
| 20260508153055 | 18 | 235 | 4.8 | 14.5 | 0.00 | 0.00 | 0.00 | 64 | 1011.9 |
| 20260508151551 | 19 | 217 | 3.2 | 22.5 | 0.00 | 0.00 | 0.00 | 61 | 1011.9 |
| 20260508150049 | 19 | 218 | 4.8 | 16.1 | 0.00 | 0.00 | 0.00 | 61 | 1011.6 |
| 20260508144551 | 18 | 0 | 3.2 | 17.7 | 0.00 | 0.00 | 0.00 | 62 | 1011.8 |
| 20260508143055 | 18 | 269 | 3.2 | 11.3 | 0.00 | 0.00 | 0.00 | 62 | 1012.0 |
| 20260508141601 | 18 | 152 | 8.0 | 11.3 | 0.00 | 0.00 | 0.00 | 62 | 1012.6 |
| 20260508140112 | 18 | 238 | 3.2 | 12.9 | 0.00 | 0.00 | 0.00 | 62 | 1012.8 |
| 20260508134545 | 18 | 162 | 1.6 | 14.5 | 0.00 | 0.00 | 0.00 | 63 | 1012.9 |
| 20260508133045 | 18 | 232 | 4.8 | 20.9 | 0.00 | 0.00 | 0.00 | 64 | 1012.9 |
| 20260508131605 | 18 | 156 | 4.8 | 16.1 | 0.00 | 0.00 | 0.00 | 62 | 1012.8 |
| 20260508130042 | 18 | 244 | 8.0 | 16.1 | 0.00 | 0.00 | 0.00 | 61 | 1012.8 |
| 20260508124548 | 18 | 184 | 4.8 | 19.3 | 0.00 | 0.00 | 0.00 | 63 | 1012.6 |
| 20260508123052 | 17 | 286 | 6.4 | 17.7 | 0.00 | 0.00 | 0.00 | 66 | 1012.7 |
| 20260508121550 | 17 | 160 | 4.8 | 17.7 | 0.00 | 0.00 | 0.00 | 64 | 1012.7 |
| 20260508120107 | 18 | 135 | 4.8 | 14.5 | 0.00 | 0.00 | 0.00 | 64 | 1012.6 |
| 20260508114559 | 18 | 129 | 8.0 | 14.5 | 0.00 | 0.00 | 0.00 | 63 | 1012.7 |
| 20260508113106 | 17 | 149 | 4.8 | 9.7 | 0.00 | 0.00 | 0.00 | 66 | 1012.7 |
| 20260508111551 | 17 | 142 | 6.4 | 16.1 | 0.00 | 0.00 | 0.00 | 63 | 1012.5 |
| 20260508110100 | 18 | 194 | 4.8 | 12.9 | 0.00 | 0.00 | 0.00 | 60 | 1012.6 |
| 20260508104547 | 18 | 151 | 6.4 | 14.5 | 0.00 | 0.00 | 0.00 | 58 | 1012.8 |
| 20260508103057 | 17 | 141 | 4.8 | 11.3 | 0.00 | 0.00 | 0.00 | 60 | 1013.1 |
| 20260508101551 | 17 | 250 | 1.6 | 12.9 | 0.00 | 0.00 | 0.00 | 62 | 1013.0 |
| 20260508100040 | 17 | 171 | 4.8 | 12.9 | 0.00 | 0.00 | 0.00 | 60 | 1013.3 |
| 20260508094539 | 16 | 242 | 3.2 | 11.3 | 0.00 | 0.00 | 0.00 | 57 | 1013.3 |
| 20260508093040 | 17 | 162 | 3.2 | 12.9 | 0.00 | 0.00 | 0.00 | 56 | 1013.0 |
| 20260508091543 | 17 | 173 | 3.2 | 12.9 | 0.00 | 0.00 | 0.00 | 57 | 1012.9 |
| 20260508090058 | 17 | 163 | 3.2 | 8.0 | 0.00 | 0.00 | 0.00 | 57 | 1012.8 |
| 20260508084547 | 16 | 0 | 0.0 | 3.2 | 0.00 | 0.00 | 0.00 | 64 | 1012.5 |
| 20260508083049 | 16 | 0 | 0.0 | 4.8 | 0.00 | 0.00 | 0.00 | 67 | 1012.3 |
| 20260508081547 | 15 | 347 | 1.6 | 9.7 | 0.00 | 0.00 | 0.00 | 71 | 1012.3 |
| 20260508080038 | 15 | 40 | 3.2 | 8.0 | 0.00 | 0.00 | 0.00 | 72 | 1012.4 |
| 20260508074547 | 14 | 53 | 0.0 | 6.4 | 0.00 | 0.00 | 0.00 | 75 | 1012.3 |
| 20260508073046 | 13 | 0 | 0.0 | 4.8 | 0.00 | 0.00 | 0.00 | 77 | 1012.2 |